This is the latest recevied weather packets stored in our database for station/object DK4DAX-2. If no packets are shown the sender has not sent any weather packets the latest 10 day(s).
| Time | Temp. | Humidity | Pressure | Rain* | Wind** | Luminosity | Snow |
|---|---|---|---|---|---|---|---|
| 1787861703 | 26.11° C | 57% | 1004.8 hPa | 0 mm | - | - | - |
| 1787860804 | 26.67° C | 55% | 1005.1 hPa | 0 mm | - | - | - |
| 1787859903 | 27.22° C | 50% | 1005.2 hPa | 0 mm | - | - | - |
| 1787859003 | 27.22° C | 47% | 1005.3 hPa | 0 mm | - | - | - |
| 1787858103 | 27.22° C | 44% | 1005.4 hPa | 0 mm | - | - | - |
| 1787857204 | 27.78° C | 43% | 1005.5 hPa | 0 mm | - | - | - |
| 1787856303 | 27.78° C | 43% | 1005.6 hPa | 0 mm | - | - | - |
| 1787855403 | 28.33° C | 42% | 1005.6 hPa | 0 mm | - | - | - |
| 1787854504 | 28.89° C | 41% | 1005.6 hPa | 0 mm | - | - | - |
| 1787853603 | 28.89° C | 39% | 1005.9 hPa | 0 mm | - | - | - |
| 1787852703 | 29.44° C | 38% | 1006.1 hPa | 0 mm | - | - | - |
| 1787851803 | 30° C | 37% | 1006 hPa | 0 mm | - | - | - |
| 1787850903 | 30.56° C | 37% | 1006.2 hPa | 0 mm | - | - | - |
| 1787850003 | 31.11° C | 37% | 1006.2 hPa | 0 mm | - | - | - |
| 1787849103 | 31.11° C | 36% | 1006.3 hPa | 0 mm | - | - | - |
| 1787848204 | 31.67° C | 34% | 1006.5 hPa | 0 mm | - | - | - |
| 1787847303 | 32.22° C | 33% | 1006.7 hPa | 0 mm | - | - | - |
| 1787846403 | 32.22° C | 33% | 1006.6 hPa | 0 mm | - | - | - |
| 1787845504 | 32.22° C | 34% | 1007.2 hPa | 0 mm | - | - | - |
| 1787844603 | 32.22° C | 36% | 1007.1 hPa | 0 mm | - | - | - |
| 1787843703 | 32.22° C | 36% | 1007.2 hPa | 0 mm | - | - | - |
| 1787842803 | 31.67° C | 37% | 1007.3 hPa | 0 mm | - | - | - |
| 1787841904 | 32.22° C | 36% | 1007.1 hPa | 0 mm | - | - | - |
| 1787841003 | 32.22° C | 36% | 1007.1 hPa | 0 mm | - | - | - |
| 1787840103 | 32.22° C | 35% | 1007 hPa | 0 mm | - | - | - |
* Rain latest hour (hover to see other rain measurements)
** Current wind speed in m/s (hover to see current wind gust speed)